This demonstration page uses our WeatherBlox Daily Observations layout. Learn more.

Left ArrowRight Arrow

44.8408, -93.29828

Hourly Observations for August 9, 2022

Temp ( °F °C ) Dew Point ( °F °C ) Humidity (%) Winds ( mph kmh ) Pressure ( in mb ) Visibility ( mi km ) Precip ( " mm )
12:53 am 00:53 Clear 65 18.3 57 13.9 76 76 SSE 3 6 30.09 1019 10 16 0.00 0.00
1:53 am 01:53 Clear 65 18.3 57 13.9 76 76 SW 3 6 30.09 1019 10 16 0.00 0.00
2:53 am 02:53 Clear 64 17.8 57 13.9 78 78 SW 3 6 30.08 1019 10 16 0.00 0.00
3:53 am 03:53 Clear 63 17.2 57 13.9 81 81 SSW 3 6 30.09 1019 10 16 0.00 0.00
4:53 am 04:53 Clear 62 16.7 57 13.9 84 84 Calm 30.10 1019 10 16 0.00 0.00
5:53 am 05:53 Mostly Clear 61 16.1 57 13.9 87 87 S 5 7 30.10 1019 10 16 0.00 0.00
6:53 am 06:53 Mostly Sunny 61 16.1 57 13.9 87 87 SW 5 7 30.12 1020 10 16 0.00 0.00
7:53 am 07:53 Sunny 64 17.8 58 14.4 80 80 VRB 3 6 30.13 1020 10 16 0.00 0.00
8:53 am 08:53 Sunny 68 20 58 14.4 70 70 WSW 6 9 30.13 1020 10 16 0.00 0.00
9:53 am 09:53 Sunny 72 22.2 58 14.4 61 61 W 6 9 30.12 1020 10 16 0.00 0.00
10:53 am 10:53 Sunny 74 23.3 57 13.9 56 56 SSW 5 7 30.12 1020 10 16 0.00 0.00
11:53 am 11:53 Sunny 76 24.4 57 13.9 52 52 Calm 30.11 1020 10 16 0.00 0.00
12:53 pm 12:53 Sunny 77 25 57 13.9 50 50 VRB 3 6 30.10 1019 10 16 0.00 0.00
1:53 pm 13:53 Sunny 80 26.7 57 13.9 45 45 SW 3 6 30.09 1019 10 16 0.00 0.00
2:53 pm 14:53 Sunny 82 27.8 58 14.4 44 44 S 7 11 30.08 1019 10 16 0.00 0.00
3:53 pm 15:53 Sunny 82 27.8 58 14.4 44 44 S 9 15 30.06 1018 10 16 0.00 0.00
4:53 pm 16:53 Sunny 83 28.3 57 13.9 41 41 SSW 8 13 30.06 1018 10 16 0.00 0.00
5:53 pm 17:53 Sunny 82 27.8 56 13.3 41 41 SSW 9 15 30.05 1018 10 16 0.00 0.00
6:53 pm 18:53 Sunny 82 27.8 57 13.9 43 43 WSW 9 15 30.05 1018 10 16 0.00 0.00
7:53 pm 19:53 Sunny 80 26.7 60 15.6 51 51 WSW 7 11 30.05 1018 10 16 0.00 0.00
8:53 pm 20:53 Clear 78 25.6 60 15.6 54 54 WSW 6 9 30.06 1018 10 16 0.00 0.00
9:53 pm 21:53 Clear 77 25 61 16.1 58 58 SW 7 11 30.07 1018 10 16 0.00 0.00
10:53 pm 22:53 Clear 74 23.3 61 16.1 64 64 SW 5 7 30.08 1019 10 16 0.00 0.00
11:53 pm 23:53 Clear 73 22.8 62 16.7 68 68 SSW 5 7 30.08 1019 10 16 0.00 0.00

Powered by AerisWeather